Regional Weather Roundup
Issued by NWS Kansas City/Pleasant Hill, MO

Home | Current Version | Previous Version | Text Only | Print | Product List | Glossary On
Versions: 1 2 3 4 5 6 7 8 9 10 11 12 13 14 15 16 17 18 19 20 21 22 23 24 25 26 27 28 29 30 31 32 33 34 35 36 37 38 39 40 41 42 43 44 45 46 47 48 49 50
000
ASUS43 KEAX 280704
RWREAX

WEATHER ROUNDUP FOR EASTERN KANSAS AND NORTHWEST MISSOURI
NATIONAL WEATHER SERVICE KANSAS CITY/PLEASANT HILL MO
100 AM CST WED JAN 28 2015

KSZ040-057-103>105-MOZ028-029-037-043-280800-
...KANSAS CITY METROPOLITAN AREA...

CITY           SKY/WX    TMP DP  RH WIND       PRES   REMARKS
K.C. INTL      CLEAR     40  31  70 SE15      30.02F WCI  32
K.C. DOWNTOWN  CLEAR     43  30  60 E6        30.03F
LEES SUMMIT    CLEAR     42  30  62 SE12G20   30.04F
OLATHE - IXD   CLEAR     41  30  65 SE15      30.02F WCI  33
OLATHE - OJC   CLEAR     42  30  62 SE13      30.02F
LAWRENCE       CLEAR     40  30  67 SE10      30.02F WCI  33

$$

MOZ001>008-011>017-020>025-030>033-038>040-044>046-053-054-280800-
...NORTHERN AND CENTRAL MISSOURI...

CITY           SKY/WX    TMP DP  RH WIND       PRES   REMARKS
ST. JOSEPH     CLEAR     40  31  70 SE9       30.03F WCI  34
MOSBY            N/A     39  32  75 SE7       30.06F WCI  34
WARRENSBURG    CLEAR     39  32  75 SE8       30.07F WCI  34
WHITEMAN AFB   CLEAR     39  31  73 SE8       30.07F WCI  33
CLINTON        CLEAR     41  32  70 SE7       30.09F
SEDALIA        CLEAR     37  30  75 SE12      30.11F WCI  29
WARSAW         NOT AVBL
MARSHALL       CLEAR     37  34  87 SE10      30.13F WCI  30
CHILLICOTHE      N/A     34  30  85 SE8       30.10F WCI  27
MOBERLY        CLEAR     32  27  80 E10       30.16F FOG     WCI  24
KIRKSVILLE     PTCLDY    28  27  96 SE10      30.15F FOG     WCI  19

$$

MOZ041-047>049-056>058-063>065-088>090-097-280800-
...EASTERN AND SOUTHERN MISSOURI...

CITY           SKY/WX    TMP DP  RH WIND       PRES   REMARKS
ST. LOUIS INTL CLEAR     29  24  82 SE7       30.25S WCI  22
SPIRIT OF STL  CLEAR     27  25  92 E5        30.23F WCI  22
COLUMBIA       CLEAR     33  29  85 SE9       30.16S WCI  25
JEFFERSON CITY CLEAR     37  30  75 E10       30.18S WCI  30
MEXICO         CLEAR    N/A N/A N/A SE7       30.18F HAZE
HANNIBAL       CLEAR     28  27  93 E6        30.20F FOG     WCI  22
ROLLA          CLEAR     33  28  81 SE10      30.14F WCI  25
LEBANON        CLEAR     41  30  65 SE9       30.13F
OSAGE BEACH    CLEAR     37  28  70 E7        30.13F WCI  32
SPRINGFIELD    CLEAR     47  29  49 SE16      30.09F
NEVADA         CLEAR     45  30  57 CALM      30.06F
JOPLIN         CLEAR     50  28  42 SE10      30.05F
WEST PLAINS    CLEAR     37  31  78 SE7       30.20S WCI  32

$$

IAZ060-094-KSZ022-034>040-054-083-096-NEZ052-066-093-280800-
...KANSAS...SOUTHEAST NEBRASKA AND IOWA...

CITY           SKY/WX    TMP DP  RH WIND       PRES   REMARKS
TOPEKA         CLEAR     42  29  59 SE7       29.99F
MANHATTAN      CLEAR     42  33  70 NE3       29.94F
EMPORIA        CLEAR     40  32  73 SE8       29.97F WCI  34
CHANUTE        CLEAR     42  31  64 SE10      30.01F
WICHITA        PTCLDY    46  34  62 S6        29.97F
OMAHA          PTCLDY    39  31  72 SE16      29.98F WCI  30
LINCOLN        PTCLDY    39  30  70 SE8       29.95F WCI  33
FALLS CITY     CLEAR     38  30  73 SE10      29.98F WCI  31
LAMONI         CLEAR     32  29  88 SE8       30.06F WCI  25
DES MOINES     MOCLDY    30  26  85 SE12      30.11F WCI  20

$$



USA.gov is the U.S. government's official web portal to all federal, state and local government web resources and services.